[[{"header":{"parameterUnit":"m.s-1","parameterCategory":1,"la1":30.2991,"la2":30.254,"lo1":-89.0895,"lo2":-89.0444,"dy":0.0017,"dx":0.0017,"nx":28,"ny":28,"refTime":"2024-03-30T09:00:00:Z","depth":0,"parameterNumber":2,"parameterNumberName":"U-component_of_WINDS"},"data":[0,0,0,0,0,0,0,0,0,0,0,0,0,0,0,0,0,0,0,0,0,0,0,0,0,0,0,0,0,0,0,0,0,0,0,0,0,0,0,0,0,0,0,0,0,0,0,0,0,0,0,0,0,0,0,0,0,0,-1.8503,-1.8504,0,-1.8588,-1.8589,-1.859,-1.8605,-1.8604,-1.8604,-1.8603,-1.8691,-1.8693,-1.8696,0,0,0,0,0,0,0,0,0,0,0,0,0,-1.8355,-1.8357,-1.8503,-1.8504,-1.8505,-1.8588,-1.8589,-1.859,-1.8605,-1.8604,-1.8603,-1.8603,-1.869,-1.8693,-1.8697,0,0,0,0,0,0,0,0,0,0,0,0,0,-1.8427,-1.8358,-1.8503,-1.8522,-1.8525,-1.8587,-1.8589,-1.859,-1.8605,-1.8604,-1.8603,-1.8602,-1.8688,-1.8693,-1.8697,-1.8746,0,0,-1.8711,-1.8713,0,0,0,0,0,0,0,0,-1.8423,-1.8433,-1.8518,-1.8521,-1.8524,-1.8585,-1.8569,-1.8642,-1.8605,-1.8575,-1.8603,-1.8602,-1.8656,-1.8663,-1.8682,-1.875,-1.8754,-1.8711,-1.8714,-1.8716,-1.8717,0,0,0,0,0,0,0,-1.8418,-1.8429,-1.8536,-1.852,-1.8523,-1.8527,-1.8536,-1.8583,-1.862,-1.8577,-1.8579,-1.8588,-1.8658,-1.8677,-1.8684,-1.8755,-1.8711,-1.8715,-1.8718,-1.872,-1.8868,-1.8869,0,0,0,0,0,0,-1.8409,-1.8425,-1.8534,-1.8539,-1.847,-1.8531,-1.8541,-1.8566,-1.862,-1.8627,-1.8589,-1.8589,-1.867,-1.8678,-1.8687,-1.8747,-1.8716,-1.872,-1.8723,-1.8866,-1.8868,-1.8869,0,0,0,0,0,0,-1.8406,-1.8419,-1.853,-1.8482,-1.8497,-1.8535,-1.8563,-1.8569,-1.8588,-1.8629,-1.8636,-1.8602,-1.867,-1.8681,-1.8731,-1.875,-1.8722,-1.8726,-1.8865,-1.8867,-1.8869,-1.8868,0,0,0,0,0,0,-1.8402,-1.8418,-1.8436,-1.8483,-1.8499,-1.8573,-1.8564,-1.8571,-1.8596,-1.8596,-1.8643,-1.865,-1.867,-1.8724,-1.8735,-1.8756,-1.873,-1.8863,-1.8866,-1.8868,-1.8866,-1.8869,-1.8872,0,0,0,0,0,-1.8397,-1.8433,-1.8437,-1.845,-1.8523,-1.8574,-1.8583,-1.8605,-1.8597,-1.8616,-1.8643,-1.8648,-1.8746,-1.8729,-1.8742,-1.8764,-1.8862,-1.8865,-1.8868,-1.8865,-1.8869,-1.8872,0,0,0,0,0,0,-1.8388,-1.8439,-1.8445,-1.8497,-1.8531,-1.8576,-1.8601,-1.8609,-1.8646,-1.8644,-1.867,-1.8681,-1.873,-1.8752,-1.8732,-1.8814,-1.8804,-1.8809,-1.8797,-1.8801,-1.8804,-1.8797,-1.8733,0,0,0,0,0,-1.8393,-1.8429,-1.8472,-1.8514,-1.8531,-1.8563,-1.8586,-1.86,-1.8636,-1.865,-1.868,-1.8715,-1.8754,-1.8779,-1.8817,-1.887,-1.888,-1.8891,-1.8894,-1.8896,-1.8901,-1.893,-1.8935,-1.8878,-1.8878,-1.8878,0,0,-1.8402,-1.8434,-1.8456,-1.8513,-1.8541,-1.8578,-1.8575,-1.8615,-1.8642,-1.8656,-1.8706,-1.8729,-1.877,-1.8821,-1.8846,-1.8842,-1.8919,-1.89,-1.8901,-1.8904,-1.8933,-1.8938,-1.8943,-1.888,-1.888,-1.888,0,0,-1.8438,-1.8466,-1.8504,-1.8532,-1.8574,-1.8595,-1.8604,-1.8649,-1.8664,-1.8714,-1.8725,-1.8759,-1.8826,-1.8854,-1.8877,-1.8924,-1.893,-1.8936,-1.895,-1.8979,-1.8983,-1.8987,-1.9003,-1.9009,-1.894,-1.894,-1.894,0,-1.8444,-1.85,-1.8523,-1.8562,-1.8587,-1.8601,-1.864,-1.8666,-1.8718,-1.8735,-1.873,-1.8813,-1.8842,-1.89,-1.8911,-1.893,-1.8941,-1.893,-1.8981,-1.8985,-1.8989,-1.9005,-1.9011,-1.894,-1.894,-1.894,-1.894,0,-1.8506,-1.8544,-1.857,-1.862,-1.8648,-1.8686,-1.8715,-1.8741,-1.8752,-1.8774,-1.8824,-1.8859,-1.8904,-1.8919,-1.8931,-1.8979,-1.8976,-1.8975,-1.8965,-1.8994,-1.9009,-1.9015,-1.8941,-1.894,-1.894,-1.894,0,0,-1.8538,-1.86,-1.8609,-1.8631,-1.8679,-1.8709,-1.8749,-1.8792,-1.8814,-1.885,-1.8883,-1.8939,-1.8939,-1.8965,-1.8981,-1.9005,-1.9039,-1.9002,-1.9003,-1.9007,-1.9094,-1.9093,-1.9099,-1.9044,-1.9045,-1.9046,-1.909,0,-1.8579,-1.8649,-1.8671,-1.8729,-1.8765,-1.878,-1.8814,-1.8847,-1.8868,-1.8902,-1.8926,-1.8965,-1.8962,-1.8978,-1.9003,-1.903,-1.9057,-1.9027,-1.9075,-1.9077,-1.9064,-1.9107,-1.9107,-1.9146,-1.9096,-1.9097,-1.9098,0,-1.8636,-1.8672,-1.8734,-1.8777,-1.8793,-1.8823,-1.8865,-1.8897,-1.8935,-1.8949,-1.8978,-1.8991,-1.9033,-1.9021,-1.9079,-1.9058,-1.908,-1.9096,-1.9098,-1.9102,-1.9088,-1.9113,-1.916,-1.9165,-1.9107,-1.9107,-1.9106,0,-1.8652,-1.8717,-1.8762,-1.8781,-1.8832,-1.8853,-1.8875,-1.8912,-1.8937,-1.8973,-1.899,-1.9031,-1.9053,-1.9085,-1.9109,-1.9099,-1.9165,-1.9155,-1.9177,-1.9177,-1.919,-1.9189,-1.924,-1.9205,-1.9205,-1.9205,-1.9205,0,-1.8695,-1.8733,-1.877,-1.8798,-1.884,-1.8865,-1.8906,-1.8929,-1.8962,-1.8994,-1.901,-1.904,-1.907,-1.9105,-1.9124,-1.9169,-1.9179,-1.9192,-1.9196,-1.919,-1.9188,-1.9203,-1.9201,-1.9206,-1.9206,-1.9206,-1.9205,0,-1.8721,-1.8747,-1.8798,-1.8842,-1.8854,-1.8883,-1.892,-1.8948,-1.897,-1.9011,-1.9023,-1.9057,-1.9099,-1.9126,-1.9179,-1.9192,-1.9241,-1.9245,-1.9228,-1.923,-1.925,-1.9247,-1.9312,-1.9322,-1.9281,-1.9281,-1.9282,0,-1.8746,-1.8775,-1.8822,-1.8844,-1.8866,-1.8903,-1.8928,-1.8954,-1.898,-1.9025,-1.9047,-1.9089,-1.9124,-1.919,-1.922,-1.9261,-1.9266,-1.9286,-1.9272,-1.9264,-1.9265,-1.9263,-1.9265,-1.9288,-1.9288,-1.9288,-1.9288,0,-1.8788,-1.8799,-1.8835,-1.8875,-1.8904,-1.8937,-1.8971,-1.8988,-1.902,-1.9048,-1.909,-1.9117,-1.9171,-1.9213,-1.9256,-1.928,-1.9289,-1.9293,-1.93,-1.9293,-1.9282,-1.9287,-1.9233,-1.9291,-1.9291,-1.929,-1.929,-1.929,-1.8813,-1.8839,-1.8876,-1.8915,-1.8943,-1.8973,-1.9001,-1.9027,-1.9062,-1.9107,-1.9121,-1.9165,-1.9202,-1.9261,-1.9285,-1.932,-1.9318,-1.9328,-1.9331,-1.9333,-1.9332,-1.9276,-1.9328,-1.9328,-1.9328,-1.9328,-1.9328,0,-1.8855,-1.8879,-1.8915,-1.896,-1.8991,-1.8997,-1.9034,-1.9059,-1.9098,-1.9131,-1.9165,-1.9214,-1.9254,-1.9288,-1.933,-1.9351,-1.9356,-1.9361,-1.9359,-1.9365,-1.9332,-1.9321,-1.9356,-1.9356,-1.9356,-1.9356,-1.9356,-1.9356,-1.888,-1.8925,-1.8941,-1.8999,-1.9023,-1.9066,-1.9086,-1.9114,-1.9141,-1.9194,-1.9228,-1.9249,-1.9283,-1.9327,-1.9365,-1.9374,-1.9388,-1.9392,-1.9401,-1.937,-1.9367,-1.9364,-1.9354,-1.9395,-1.9395,-1.9431,-1.9431,-1.9431]},{"header":{"parameterUnit":"m.s-1","parameterCategory":1,"la1":30.2991,"la2":30.254,"lo1":-89.0895,"lo2":-89.0444,"dy":0.0017,"dx":0.0017,"nx":28,"ny":28,"refTime":"2024-03-30T09:00:00:Z","depth":0,"parameterNumber":3,"parameterNumberName":"V-component_of_WINDS"},"data":[0,0,0,0,0,0,0,0,0,0,0,0,0,0,0,0,0,0,0,0,0,0,0,0,0,0,0,0,0,0,0,0,0,0,0,0,0,0,0,0,0,0,0,0,0,0,0,0,0,0,0,0,0,0,0,0,0,0,3.116,3.1161,0,3.1226,3.1227,3.1228,3.1223,3.1222,3.1221,3.122,3.1287,3.129,3.1293,0,0,0,0,0,0,0,0,0,0,0,0,0,3.1029,3.1032,3.116,3.1161,3.1162,3.1226,3.1227,3.1228,3.1223,3.1222,3.1221,3.122,3.1286,3.129,3.1293,0,0,0,0,0,0,0,0,0,0,0,0,0,3.109,3.1032,3.116,3.1167,3.1169,3.1226,3.1227,3.1228,3.1224,3.1222,3.1221,3.1219,3.1285,3.1289,3.1293,3.1347,0,0,3.1306,3.1307,0,0,0,0,0,0,0,0,3.1086,3.1095,3.1165,3.1167,3.1168,3.1215,3.1205,3.1268,3.1224,3.1203,3.122,3.1219,3.1264,3.127,3.1286,3.1351,3.1353,3.1306,3.1308,3.131,3.1311,0,0,0,0,0,0,0,3.1082,3.1092,3.1186,3.1166,3.1168,3.1167,3.1174,3.1217,3.1241,3.1204,3.1204,3.1212,3.1265,3.1282,3.1287,3.1354,3.1306,3.1309,3.1312,3.1314,3.1468,3.147,0,0,0,0,0,0,3.1076,3.1088,3.1184,3.1188,3.1123,3.1171,3.1178,3.1201,3.124,3.1245,3.1213,3.1212,3.1276,3.1283,3.129,3.1356,3.131,3.1314,3.1316,3.1466,3.1468,3.147,0,0,0,0,0,0,3.1074,3.1085,3.1181,3.1138,3.115,3.1174,3.12,3.1204,3.122,3.1247,3.1251,3.1226,3.1275,3.1284,3.1333,3.1359,3.1316,3.1319,3.1464,3.1467,3.1469,3.149,0,0,0,0,0,0,3.107,3.1084,3.1105,3.1139,3.1153,3.1224,3.1202,3.1206,3.1228,3.1226,3.126,3.1265,3.1274,3.1327,3.1337,3.1363,3.1323,3.1462,3.1466,3.1469,3.1487,3.1493,3.1498,0,0,0,0,0,3.1065,3.1108,3.1106,3.1118,3.1179,3.1226,3.1234,3.1244,3.123,3.1251,3.1268,3.1264,3.1354,3.1332,3.1344,3.1371,3.1461,3.1465,3.1468,3.1485,3.1492,3.1498,0,0,0,0,0,0,3.1076,3.1112,3.1111,3.1165,3.1193,3.1225,3.1252,3.1251,3.1283,3.128,3.1291,3.1299,3.1349,3.1365,3.134,3.1426,3.1405,3.1412,3.1414,3.1421,3.1426,3.1422,3.1326,0,0,0,0,0,3.1084,3.1119,3.1149,3.1195,3.1208,3.1228,3.1248,3.1254,3.1283,3.1294,3.1315,3.1342,3.1377,3.14,3.1433,3.1489,3.1497,3.1514,3.1519,3.1523,3.1529,3.156,3.1568,3.1483,3.1483,3.1483,0,0,3.1103,3.1127,3.1148,3.1197,3.1219,3.1255,3.1238,3.1276,3.1303,3.13,3.1348,3.1364,3.1396,3.1449,3.1474,3.1464,3.1554,3.1528,3.1531,3.1534,3.1565,3.1573,3.158,3.1485,3.1485,3.1484,0,0,3.1155,3.1176,3.1217,3.1239,3.1273,3.1285,3.1295,3.1328,3.1339,3.1388,3.1386,3.1418,3.1477,3.15,3.152,3.1581,3.1578,3.1591,3.1619,3.165,3.1657,3.1663,3.1686,3.1694,3.1596,3.1596,3.1596,0,3.1173,3.1228,3.1238,3.1277,3.1299,3.1298,3.134,3.1361,3.1403,3.1418,3.1407,3.1482,3.1503,3.1562,3.1577,3.1592,3.1604,3.1588,3.1655,3.1661,3.1667,3.1689,3.1697,3.1598,3.1598,3.1598,3.1597,0,3.1249,3.1287,3.1316,3.1357,3.1382,3.1422,3.1439,3.1463,3.1466,3.148,3.153,3.1556,3.1594,3.1609,3.1612,3.1669,3.1662,3.1653,3.1632,3.1677,3.1697,3.1706,3.16,3.1599,3.1599,3.1599,0,0,3.131,3.1357,3.1368,3.1387,3.1424,3.1453,3.1493,3.1532,3.1552,3.1581,3.1616,3.1666,3.1658,3.168,3.1686,3.1713,3.1761,3.1701,3.1702,3.1712,3.1826,3.1833,3.1843,3.1759,3.1761,3.1762,3.1824,0,3.1367,3.1438,3.1449,3.1512,3.1547,3.1547,3.1582,3.1608,3.1623,3.1655,3.167,3.1706,3.1692,3.1706,3.1732,3.175,3.1784,3.1745,3.1792,3.1793,3.1785,3.1854,3.1861,3.1918,3.1832,3.1833,3.1834,0,3.1442,3.1474,3.1541,3.1574,3.1589,3.162,3.1657,3.1687,3.1717,3.1726,3.1751,3.1754,3.1795,3.1773,3.1831,3.1804,3.1823,3.1835,3.1837,3.1843,3.1817,3.1862,3.1936,3.1945,3.1847,3.1846,3.1845,0,3.1481,3.1541,3.1589,3.1605,3.1644,3.1666,3.1684,3.1712,3.1735,3.1767,3.1782,3.1817,3.1837,3.1865,3.1878,3.186,3.1935,3.1913,3.1944,3.1944,3.1961,3.196,3.204,3.1972,3.1971,3.1971,3.1971,0,3.1544,3.1585,3.1607,3.1636,3.1683,3.1694,3.174,3.1756,3.1782,3.1815,3.1816,3.1847,3.1861,3.1894,3.1904,3.1952,3.196,3.1968,3.1971,3.1969,3.1968,3.1983,3.1979,3.1974,3.1973,3.1973,3.1972,0,3.1595,3.1611,3.1664,3.1697,3.1706,3.1739,3.1767,3.1796,3.181,3.1851,3.1862,3.1884,3.1923,3.1938,3.1986,3.1992,3.2047,3.2046,3.2037,3.2038,3.2068,3.2066,3.2162,3.2176,3.2097,3.2098,3.2098,0,3.1634,3.1666,3.1703,3.1725,3.1743,3.1779,3.1803,3.1815,3.184,3.1877,3.1901,3.194,3.1972,3.2035,3.2055,3.2091,3.2092,3.2123,3.2097,3.2095,3.2093,3.2092,3.2095,3.2128,3.2129,3.2129,3.213,0,3.1703,3.171,3.1743,3.178,3.1808,3.1838,3.1867,3.1885,3.1902,3.1929,3.1969,3.1994,3.2043,3.2082,3.212,3.2138,3.2137,3.2138,3.2147,3.2146,3.214,3.2145,3.2051,3.2136,3.2135,3.2135,3.2134,3.2134,3.175,3.1779,3.1809,3.1847,3.187,3.1897,3.1926,3.1944,3.1978,3.2019,3.2024,3.2068,3.2098,3.2148,3.2168,3.2202,3.2194,3.2207,3.221,3.2214,3.2216,3.2134,3.2209,3.2208,3.2208,3.2208,3.2208,0,3.182,3.1839,3.1874,3.1915,3.1945,3.1941,3.1973,3.1998,3.2037,3.2064,3.2096,3.2143,3.2181,3.2204,3.2242,3.2265,3.2266,3.2275,3.2274,3.2278,3.2221,3.221,3.2274,3.2274,3.2274,3.2274,3.2274,3.2274,3.1859,3.1908,3.1918,3.1979,3.1998,3.2041,3.2059,3.2085,3.2107,3.2159,3.2191,3.2206,3.2232,3.2273,3.2307,3.2313,3.2328,3.2338,3.2343,3.2289,3.2282,3.2276,3.2265,3.234,3.234,3.2398,3.2398,3.2399]}]]